Regional Weather Roundup
Issued by NWS

Home | Current Version | Previous Version | Graphics & Text | Print | Product List | Glossary On
Versions: 1 2 3 4 5 6 7 8 9 10 11 12 13 14 15 16 17 18 19 20 21 22 23 24 25 26 27 28 29 30 31 32 33 34 35 36 37 38 39 40 41 42 43 44 45 46 47
000
ASUS45 KSLC 051710
RWRUT

UTAH REGIONAL WEATHER ROUNDUP
NATIONAL WEATHER SERVICE SALT LAKE CITY UT
1000 AM MST THU MAR 05 2015

UTZ001>011-023>025-051800-

NORTHERN UTAH

CITY           SKY/WX    TMP DP  RH WIND       PRES   REMARKS
HILL AFB       MOSUNNY   29  14  52 E10       30.44R WCI  20
LOGAN          SUNNY     30  19  63 CALM      30.44S
OGDEN          MOSUNNY   32  17  54 CALM      30.44R
PROVO AIRPORT  SUNNY     34  18  51 SE6       30.47R WCI  29
SALT LAKE CITY PTSUNNY   35  21  56 SE8       30.45R WCI  29
VERNAL         SUNNY     27  14  58 CALM      30.42R
WENDOVER       SUNNY     30  19  64 NE3       30.45R
WEST JORDAN    SUNNY     34  25  69 S13       30.44R WCI  25

$$

UTZ012>022-026-027-051800-

SOUTHERN/CENTRAL UTAH

CITY           SKY/WX    TMP DP  RH WIND       PRES   REMARKS
BRYCE CANYON   SUNNY     11   6  81 CALM      30.40R
CEDAR CITY     SUNNY     24  11  57 NE5       30.41R WCI  18
MILFORD        SUNNY     33  20  58 CALM      30.44R
MOAB/CYNLANDS  SUNNY     36  13  38 E5        30.43R WCI  32
PRICE          SUNNY     31  13  47 S5        30.39S WCI  26
ST GEORGE      MOSUNNY   39  27  60 CALM      30.47S
KANAB          SUNNY     36  14  41 N8        30.45S WCI  29

$$

REGIONAL REPORTS     COLORADO/ARIZONA

CITY           SKY/WX    TMP DP  RH WIND       PRES   REMARKS
CRAIG, CO      SUNNY     20   8  60 CALM      30.39F
GRAND JUNCTION SUNNY     32   8  36 SE12      30.45R WCI  23
RIFLE          SUNNY     26   7  44 E5        30.46S WCI  20
MONTROSE       SUNNY     29  13  51 CALM      30.45F
CORTEZ         SUNNY     32  11  41 CALM      30.40F
PAGE, AZ       SUNNY     39  18  42 CALM      30.43S
GRAND CANYON   SUNNY     38  13  35 NE6       30.40R WCI  33
KINGMAN        SUNNY     49  26  41 N8        30.38S
FLAGSTAFF      SUNNY     33   7  33 NE12      30.39R WCI  24

$$

REGIONAL REPORTS    NEVADA/IDAHO/WYOMING

CITY           SKY/WX    TMP DP  RH WIND       PRES   REMARKS
LAS VEGAS, NV  SUNNY     52  23  32 S3        30.38R
ELY            SUNNY     31  17  56 S9        30.40S WCI  23
ELKO           SUNNY     31  15  52 CALM      30.43S
POCATELLO, ID  SUNNY     37  20  50 CALM      30.41R
EVANSTON, WY   MOSUNNY   24  12  60 SW10      30.37R WCI  14
ROCK SPRINGS   MOSUNNY   23  12  62 W30       30.29F WCI   5

$$


USA.gov is the U.S. government's official web portal to all federal, state and local government web resources and services.